Miscellaneous Local Product
Issued by NWS North Platte, NE

Home | Current Version | Previous Version | Text Only | Print | Product List | Glossary On
Versions: 1 2 3 4 5 6 7 8 9 10 11 12 13 14 15 16 17 18 19 20 21 22 23 24 25 26 27 28 29 30 31 32 33 34 35 36 37 38 39 40 41 42 43 44 45 46 47 48 49 50
164
AXUS43 KLBF 082010
MISLBF


WESTERN AND NORTH CENTRAL NEBRASKA HOURLY WEATHER ROUNDUP
NATIONAL WEATHER SERVICE NORTH PLATTE NE
200 PM CST MON FEB 08 2016

NOTE: "FAIR" INDICATES FEW OR NO CLOUDS BELOW 12,000 FEET WITH NO
SIGNIFICANT WEATHER AND/OR OBSTRUCTIONS TO VISIBILITY.

NOTE: STATIONS NOT REPORTING VARIABLES SUCH AS SKY/WEATHER OR
PRESSURE ARE PROVIDED BY THE NEBRASKA DEPARTMENT OF
ROADS...RAWS...AND APRS NETWORKS...AND ARE NOT UNDER
NATIONAL WEATHER SERVICE QUALITY CONTROL.

...OBSERVATIONS IN AND NEAR THE EASTERN PANHANDLE OF NEBRASKA...

CITY           SKY/WX    TMP DP  RH WIND       PRES   REMARKS
PINE RIDGE     CLOUDY    38   9  30 NW15      30.30F WCI  29
CHADRON        CLOUDY    39  15  37 NW21      30.32F WCI  29
ALLIANCE       PTSUNNY   34  16  47 NW18G25   30.29F WCI  23
SIDNEY         CLOUDY    37  24  59 NW20      30.30F WCI  27
CRESCENT LAKE    N/A     36  14  40 NW18G25     N/A  WCI  26
BIG SPRINGS      N/A     38  22  53 NW9         N/A  WCI  31
$$

...OBSERVATIONS IN NORTH CENTRAL NEBRASKA...

CITY           SKY/WX    TMP DP  RH WIND       PRES   REMARKS
VALENTINE      CLOUDY    33  17  51 NW20G31   30.25F WCI  21
THEDFORD       CLOUDY    38  13  36 NW22G39   30.24F WCI  27
AINSWORTH      MOSUNNY   33  13  43 NW29G38   30.22F WCI  20
O`NEILL        SUNNY     33  18  53 NW32G41   30.18F WCI  19
ORD            SUNNY     35  17  47 NW29G41   30.17F WCI  22
BROKEN BOW     SUNNY     36  15  42 N30G48    30.20F WCI  23
VALENTINE NWR    N/A     34  13  41 NW22G35     N/A  WCI  22
BUTTE            N/A     33  20  58 NW28G36     N/A  WCI  19
HALSEY           N/A     36  12  37 NW17G32     N/A  WCI  26
CHAMBERS         N/A     35  16  46 N24         N/A  WCI  23
EWING            N/A     34  20  57 N16G26      N/A  WCI  24
$$

...OBSERVATIONS IN SOUTHWEST NEBRASKA AND FAR NORTHEAST COLORADO...

CITY           SKY/WX    TMP DP  RH WIND       PRES   REMARKS
WRAY           FAIR      38  21  49 NW18      30.34F WCI  29
HOLYOKE        FAIR      41  21  45 NW17G23   30.30F
IMPERIAL       CLOUDY    36  16  44 NW20      30.29F WCI  25
OGALLALA       CLOUDY    37  15  41 NW20G25   30.29F WCI  26
NORTH PLATTE   CLOUDY    36  13  38 NW22G31   30.26F WCI  25
MCCOOK         CLOUDY    37  17  44 NW26      30.28F WCI  25
LEXINGTON      SUNNY     35  17  47 NW24G33   30.24F WCI  23
PAXTON           N/A     36  23  59 NW12        N/A  WCI  28
STAPLETON        N/A     36  17  45 W6G17       N/A  WCI  31
GOTHENBURG       N/A     35  16  46 NW13        N/A  WCI  26
CALLAWAY         N/A     35  17  47 NW22        N/A  WCI  23
$$

...OBSERVATIONS IN CENTRAL LINCOLN COUNTY AREA...

CITY           SKY/WX    TMP DP  RH WIND       PRES   REMARKS
N.P. AIRPORT   CLOUDY    36  13  38 NW22G31   30.26F WCI  25
N.P. DOWNTOWN    N/A     36  14  40 NW20G29     N/A  WCI  25
N.P. SOUTHEAST   N/A     36  12  37 N14G26      N/A  WCI  27
N.P. HILLCREST   N/A     36  15  42 NW25G35     N/A  WCI  24
$$

...SOME OBSERVATIONS FROM AROUND THE REGION...

CITY           SKY/WX    TMP DP  RH WIND       PRES   REMARKS
DENVER         PTSUNNY   40  22  48 VRB3      30.35F
LARAMIE        SUNNY     39  25  57 NW26G35   30.37F WCI  28
CHEYENNE       SUNNY     41  23  48 NW25G39   30.33F
SCOTTSBLUFF    CLOUDY    41  24  51 NW14      30.32F
RAPID CITY     CLOUDY    40   8  26 N30G38    30.28F WCI  28
BISMARCK       MOSUNNY   36  17  46 NW18G32   30.24F WCI  26
PIERRE         CLOUDY    36  16  44 NW29G39   30.23F WCI  23
WINNER         FAIR      35  17  47 NW25G39   30.23F WCI  23
SIOUX FALLS    PTSUNNY   23  15  71 N24G31    30.09S WCI   7
OMAHA          CLOUDY    28  19  69 NW28G36   30.08F WCI  13
GRAND ISLAND   SUNNY     34  18  52 NW25G43   30.17F WCI  21
KANSAS CITY    FLURRIES  31  17  56 NW20G31   30.04F WCI  19
WICHITA        MOSUNNY   45  10  24 N37G48    30.21F
OKLAHOMA CITY  MOSUNNY   50   9  19 N33G45    30.24F
LIBERAL        SUNNY     48  10  21 N23G32    30.36F
HAYS           SUNNY     39  12  33 NW28G40   30.28F WCI  28
GOODLAND       CLOUDY    37  16  42 N26G36    30.31F WCI  25
$$




USA.gov is the U.S. government's official web portal to all federal, state and local government web resources and services.